Time,TemperatureF,DewpointF,PressureIn,WindDirection,WindDirectionDegrees,WindSpeedMPH,WindSpeedGustMPH,Humidity,HourlyPrecipIn,Conditions,Clouds,dailyrainin,SoftwareType,DateUTC
2013-03-14 00:02:00,32.0,19.0,-100.00,NW,325,3.0,7.0,58,0.00,,,-99.99,,2013-03-14 00:02:00,
2013-03-14 00:12:00,31.0,20.0,-100.00,NNE,20,3.0,5.0,61,0.00,,,-99.99,,2013-03-14 00:12:00,
2013-03-14 00:22:00,31.0,19.0,-100.00,North,0,2.0,4.0,62,0.00,,,-99.99,,2013-03-14 00:22:00,
2013-03-14 00:32:00,30.0,20.0,-100.00,North,10,1.0,3.0,64,0.00,,,-99.99,,2013-03-14 00:32:00,
2013-03-14 00:42:00,30.0,21.0,-100.00,NNE,30,1.0,3.0,69,0.00,,,-99.99,,2013-03-14 00:42:00,
2013-03-14 00:52:00,29.0,23.0,-100.00,North,5,1.0,4.0,75,0.00,,,-99.99,,2013-03-14 00:52:00,
2013-03-14 01:02:00,29.0,24.0,-100.00,NE,55,1.0,3.0,79,0.00,,,-99.99,,2013-03-14 01:02:00,
2013-03-14 01:12:00,29.0,24.0,-100.00,NE,55,1.0,3.0,79,0.00,,,-99.99,,2013-03-14 01:12:00,
2013-03-14 01:22:00,29.0,24.0,-100.00,North,0,1.0,3.0,83,0.00,,,-99.99,,2013-03-14 01:22:00,
2013-03-14 01:32:00,28.0,24.0,-100.00,NNE,20,0.0,4.0,82,0.00,,,-99.99,,2013-03-14 01:32:00,
2013-03-14 01:42:00,28.0,24.0,-100.00,NNE,20,0.0,4.0,82,0.00,,,-99.99,,2013-03-14 01:42:00,
2013-03-14 01:53:00,28.0,24.0,-100.00,ENE,65,2.0,2.0,82,0.00,,,-99.99,,2013-03-14 01:53:00,
2013-03-14 02:02:00,28.0,24.0,-100.00,ENE,75,1.0,3.0,84,0.00,,,-99.99,,2013-03-14 02:02:00,
2013-03-14 02:12:00,28.0,23.0,-100.00,ENE,65,1.0,2.0,82,0.00,,,-99.99,,2013-03-14 02:12:00,
2013-03-14 02:22:00,28.0,24.0,-100.00,ENE,65,1.0,1.0,84,0.00,,,-99.99,,2013-03-14 02:22:00,
2013-03-14 02:32:00,28.0,24.0,-100.00,ENE,65,1.0,1.0,84,0.00,,,-99.99,,2013-03-14 02:32:00,
2013-03-14 02:42:00,28.0,24.0,-100.00,ENE,65,1.0,1.0,84,0.00,,,-99.99,,2013-03-14 02:42:00,
2013-03-14 02:51:00,28.0,24.0,-100.00,ENE,65,1.0,1.0,84,0.00,,,-99.99,,2013-03-14 02:51:00,
2013-03-14 03:02:00,27.0,25.0,-100.00,North,0,1.0,2.0,91,0.00,,,-99.99,,2013-03-14 03:02:00,
2013-03-14 03:12:00,27.0,25.0,-100.00,NNE,30,1.0,2.0,93,0.00,,,-99.99,,2013-03-14 03:12:00,
2013-03-14 03:22:00,27.0,26.0,-100.00,ENE,75,2.0,4.0,94,0.00,,,-99.99,,2013-03-14 03:22:00,
2013-03-14 03:32:00,27.0,25.0,-100.00,SSE,165,1.0,2.0,94,0.00,,,-99.99,,2013-03-14 03:32:00,
2013-03-14 03:42:00,27.0,25.0,-100.00,SSE,165,1.0,2.0,94,0.00,,,-99.99,,2013-03-14 03:42:00,
2013-03-14 03:52:00,26.0,25.0,-100.00,ESE,120,0.0,2.0,93,0.00,,,-99.99,,2013-03-14 03:52:00,
2013-03-14 04:12:00,27.0,25.0,-100.00,East,95,0.0,2.0,92,0.00,,,-99.99,,2013-03-14 04:12:00,
2013-03-14 04:22:00,27.0,24.0,-100.00,SE,130,2.0,2.0,89,0.00,,,-99.99,,2013-03-14 04:22:00,
2013-03-14 04:32:00,27.0,25.0,-100.00,SE,135,1.0,4.0,90,0.00,,,-99.99,,2013-03-14 04:32:00,
2013-03-14 04:42:00,27.0,25.0,-100.00,SE,135,1.0,4.0,90,0.00,,,-99.99,,2013-03-14 04:42:00,
2013-03-14 04:52:00,27.0,24.0,-100.00,SE,140,2.0,4.0,87,0.00,,,-99.99,,2013-03-14 04:52:00,
2013-03-14 05:02:00,27.0,24.0,-100.00,ESE,120,1.0,2.0,85,0.00,,,-99.99,,2013-03-14 05:02:00,
2013-03-14 05:12:00,27.0,23.0,-100.00,SE,135,2.0,3.0,84,0.00,,,-99.99,,2013-03-14 05:12:00,
2013-03-14 05:22:00,27.0,24.0,-100.00,SSE,150,2.0,3.0,86,0.00,,,-99.99,,2013-03-14 05:22:00,
2013-03-14 05:33:00,27.0,24.0,-100.00,SE,135,1.0,2.0,87,0.00,,,-99.99,,2013-03-14 05:33:00,
2013-03-14 05:42:00,27.0,24.0,-100.00,SE,130,2.0,4.0,88,0.00,,,-99.99,,2013-03-14 05:42:00,
2013-03-14 05:52:00,27.0,24.0,-100.00,SE,125,2.0,4.0,88,0.00,,,-99.99,,2013-03-14 05:52:00,
2013-03-14 06:02:00,27.0,24.0,-100.00,SE,130,1.0,2.0,88,0.00,,,-99.99,,2013-03-14 06:02:00,
2013-03-14 06:12:00,27.0,24.0,-100.00,ESE,110,2.0,3.0,88,0.00,,,-99.99,,2013-03-14 06:12:00,
2013-03-14 06:22:00,27.0,25.0,-100.00,SE,135,2.0,4.0,89,0.00,,,-99.99,,2013-03-14 06:22:00,
2013-03-14 06:32:00,27.0,24.0,-100.00,ESE,115,3.0,4.0,89,0.00,,,-99.99,,2013-03-14 06:32:00,
2013-03-14 06:42:00,27.0,24.0,-100.00,SSE,150,2.0,5.0,87,0.00,,,-99.99,,2013-03-14 06:42:00,
2013-03-14 06:52:00,27.0,24.0,-100.00,ESE,120,1.0,4.0,86,0.00,,,-99.99,,2013-03-14 06:52:00,
2013-03-14 07:02:00,27.0,24.0,-100.00,ESE,120,1.0,4.0,86,0.00,,,-99.99,,2013-03-14 07:02:00,
2013-03-14 07:12:00,27.0,24.0,-100.00,ESE,120,1.0,3.0,86,0.00,,,-99.99,,2013-03-14 07:12:00,
2013-03-14 07:22:00,28.0,25.0,-100.00,SSE,165,1.0,6.0,86,0.00,,,-99.99,,2013-03-14 07:22:00,
2013-03-14 07:32:00,29.0,25.0,-100.00,South,175,2.0,6.0,85,0.00,,,-99.99,,2013-03-14 07:32:00,
2013-03-14 07:42:00,29.0,25.0,-100.00,South,175,2.0,6.0,85,0.00,,,-99.99,,2013-03-14 07:42:00,
2013-03-14 07:52:00,29.0,25.0,-100.00,SSE,160,2.0,4.0,85,0.00,,,-99.99,,2013-03-14 07:52:00,
2013-03-14 08:02:00,28.0,25.0,-100.00,SSE,165,1.0,4.0,85,0.00,,,-99.99,,2013-03-14 08:02:00,
2013-03-14 08:12:00,29.0,25.0,-100.00,SSW,205,3.0,8.0,85,0.00,,,-99.99,,2013-03-14 08:12:00,
2013-03-14 08:21:00,28.0,25.0,-100.00,South,175,1.0,3.0,85,0.00,,,-99.99,,2013-03-14 08:21:00,
2013-03-14 08:32:00,28.0,24.0,-100.00,South,175,1.0,4.0,84,0.00,,,-99.99,,2013-03-14 08:32:00,
2013-03-14 08:41:00,29.0,25.0,-100.00,South,175,3.0,6.0,85,0.00,,,-99.99,,2013-03-14 08:41:00,
2013-03-14 08:51:00,28.0,25.0,-100.00,SSE,160,3.0,6.0,86,0.00,,,-99.99,,2013-03-14 08:51:00,
2013-03-14 09:01:00,28.0,25.0,-100.00,SSE,160,3.0,6.0,86,0.00,,,-99.99,,2013-03-14 09:01:00,
2013-03-14 09:12:00,29.0,25.0,-100.00,SSE,165,4.0,6.0,86,0.00,,,-99.99,,2013-03-14 09:12:00,
2013-03-14 09:22:00,29.0,26.0,-100.00,South,185,4.0,7.0,86,0.00,,,-99.99,,2013-03-14 09:22:00,
2013-03-14 09:32:00,30.0,26.0,-100.00,SSW,200,2.0,7.0,85,0.00,,,-99.99,,2013-03-14 09:32:00,
2013-03-14 09:42:00,30.0,26.0,-100.00,SSW,200,2.0,7.0,85,0.00,,,-99.99,,2013-03-14 09:42:00,
2013-03-14 09:52:00,30.0,26.0,-100.00,South,190,2.0,7.0,84,0.00,,,-99.99,,2013-03-14 09:52:00,
2013-03-14 10:02:00,30.0,26.0,-100.00,South,190,2.0,7.0,84,0.00,,,-99.99,,2013-03-14 10:02:00,
2013-03-14 10:12:00,30.0,26.0,-100.00,South,175,4.0,6.0,85,0.00,,,-99.99,,2013-03-14 10:12:00,
2013-03-14 10:22:00,30.0,27.0,-100.00,SSW,195,2.0,6.0,86,0.00,,,-99.99,,2013-03-14 10:22:00,
2013-03-14 10:32:00,31.0,27.0,-100.00,South,185,4.0,7.0,85,0.00,,,-99.99,,2013-03-14 10:32:00,
2013-03-14 10:42:00,31.0,27.0,-100.00,South,180,3.0,6.0,86,0.00,,,-99.99,,2013-03-14 10:42:00,
2013-03-14 10:52:00,31.0,27.0,-100.00,South,185,4.0,9.0,85,0.00,,,-99.99,,2013-03-14 10:52:00,
2013-03-14 11:02:00,31.0,27.0,-100.00,South,180,5.0,10.0,84,0.00,,,-99.99,,2013-03-14 11:02:00,
2013-03-14 11:12:00,32.0,28.0,-100.00,South,190,4.0,8.0,84,0.00,,,-99.99,,2013-03-14 11:12:00,
2013-03-14 11:22:00,32.0,28.0,-100.00,SSW,195,5.0,8.0,85,0.00,,,-99.99,,2013-03-14 11:22:00,
2013-03-14 11:33:00,32.0,28.0,-100.00,South,185,6.0,8.0,85,0.00,,,-99.99,,2013-03-14 11:33:00,
2013-03-14 11:42:00,32.0,28.0,-100.00,South,180,6.0,9.0,84,0.00,,,-99.99,,2013-03-14 11:42:00,
2013-03-14 11:52:00,32.0,28.0,-100.00,SSE,160,5.0,10.0,85,0.00,,,-99.99,,2013-03-14 11:52:00,
2013-03-14 12:02:00,32.0,28.0,-100.00,SSE,160,5.0,10.0,85,0.00,,,-99.99,,2013-03-14 12:02:00,
2013-03-14 12:12:00,32.0,28.0,-100.00,SE,125,6.0,7.0,86,0.00,,,-99.99,,2013-03-14 12:12:00,
2013-03-14 12:22:00,32.0,28.0,-100.00,SE,125,6.0,7.0,86,0.00,,,-99.99,,2013-03-14 12:22:00,
2013-03-14 12:33:00,31.0,29.0,-100.00,SE,135,6.0,9.0,90,0.00,,,-99.99,,2013-03-14 12:33:00,
2013-03-14 12:42:00,31.0,29.0,-100.00,SE,135,6.0,9.0,90,0.00,,,-99.99,,2013-03-14 12:42:00,
2013-03-14 12:52:00,31.0,29.0,-100.00,SSE,150,4.0,7.0,91,0.00,,,-99.99,,2013-03-14 12:52:00,
2013-03-14 13:02:00,31.0,29.0,-100.00,SSE,150,4.0,7.0,91,0.00,,,-99.99,,2013-03-14 13:02:00,
2013-03-14 13:12:00,32.0,29.0,-100.00,SE,145,5.0,9.0,90,0.00,,,-99.99,,2013-03-14 13:12:00,
2013-03-14 13:22:00,32.0,29.0,-100.00,South,175,6.0,8.0,90,0.00,,,-99.99,,2013-03-14 13:22:00,
2013-03-14 13:32:00,32.0,29.0,-100.00,SSE,155,5.0,11.0,88,0.00,,,-99.99,,2013-03-14 13:32:00,
2013-03-14 13:42:00,33.0,29.0,-100.00,SSE,165,6.0,12.0,86,0.00,,,-99.99,,2013-03-14 13:42:00,
2013-03-14 13:52:00,33.0,29.0,-100.00,SSE,165,4.0,7.0,86,0.00,,,-99.99,,2013-03-14 13:52:00,
2013-03-14 14:02:00,33.0,30.0,-100.00,South,170,6.0,9.0,87,0.00,,,-99.99,,2013-03-14 14:02:00,
2013-03-14 14:12:00,33.0,30.0,-100.00,SE,145,4.0,9.0,87,0.00,,,-99.99,,2013-03-14 14:12:00,
2013-03-14 14:22:00,33.0,30.0,-100.00,South,170,4.0,12.0,88,0.35,,,-99.99,,2013-03-14 14:22:00,
2013-03-14 14:32:00,35.0,31.0,-100.00,SSW,195,3.0,11.0,84,0.00,,,-99.99,,2013-03-14 14:32:00,
2013-03-14 14:42:00,35.0,31.0,-100.00,South,180,7.0,10.0,86,0.30,,,-99.99,,2013-03-14 14:42:00,
2013-03-14 14:52:00,35.0,31.0,-100.00,South,190,7.0,12.0,84,0.40,,,-99.99,,2013-03-14 14:52:00,
2013-03-14 15:02:00,35.0,31.0,-100.00,South,190,7.0,12.0,84,0.40,,,-99.99,,2013-03-14 15:02:00,
2013-03-14 15:12:00,36.0,31.0,-100.00,East,100,6.0,13.0,81,0.00,,,-99.99,,2013-03-14 15:12:00,
2013-03-14 15:22:00,36.0,32.0,-100.00,ESE,110,7.0,13.0,85,0.00,,,-99.99,,2013-03-14 15:22:00,
2013-03-14 15:32:00,36.0,32.0,-100.00,SE,135,7.0,9.0,83,0.00,,,-99.99,,2013-03-14 15:32:00,
2013-03-14 15:42:00,37.0,33.0,-100.00,SSE,150,7.0,11.0,82,0.00,,,-99.99,,2013-03-14 15:42:00,
2013-03-14 15:52:00,39.0,33.0,-100.00,SE,130,4.0,9.0,80,0.00,,,-99.99,,2013-03-14 15:52:00,
2013-03-14 16:03:00,39.0,34.0,-100.00,SE,145,3.0,9.0,80,0.00,,,-99.99,,2013-03-14 16:03:00,
2013-03-14 16:12:00,39.0,32.0,-100.00,SSE,165,6.0,10.0,75,0.00,,,-99.99,,2013-03-14 16:12:00,
2013-03-14 16:22:00,41.0,33.0,-100.00,SSE,165,7.0,9.0,75,0.00,,,-99.99,,2013-03-14 16:22:00,
2013-03-14 16:32:00,42.0,34.0,-100.00,South,190,4.0,12.0,73,0.00,,,-99.99,,2013-03-14 16:32:00,
2013-03-14 16:42:00,43.0,35.0,-100.00,SSW,195,4.0,11.0,71,0.00,,,-99.99,,2013-03-14 16:42:00,
2013-03-14 16:52:00,44.0,36.0,-100.00,SSW,195,7.0,12.0,72,0.00,,,-99.99,,2013-03-14 16:52:00,
2013-03-14 17:02:00,44.0,36.0,-100.00,SSW,195,7.0,12.0,72,0.00,,,-99.99,,2013-03-14 17:02:00,
2013-03-14 17:12:00,44.0,35.0,-100.00,SSW,205,7.0,12.0,70,0.00,,,-99.99,,2013-03-14 17:12:00,
2013-03-14 17:23:00,45.0,36.0,-100.00,SSW,195,7.0,13.0,71,0.00,,,-99.99,,2013-03-14 17:23:00,
2013-03-14 17:32:00,47.0,37.0,-100.00,SW,230,11.0,13.0,69,0.00,,,-99.99,,2013-03-14 17:32:00,
2013-03-14 17:42:00,47.0,37.0,-100.00,SW,230,11.0,13.0,69,0.00,,,-99.99,,2013-03-14 17:42:00,
2013-03-14 17:52:00,48.0,36.0,-100.00,SW,235,4.0,11.0,64,0.00,,,-99.99,,2013-03-14 17:52:00,
2013-03-14 18:02:00,48.0,36.0,-100.00,SW,235,4.0,11.0,64,0.00,,,-99.99,,2013-03-14 18:02:00,
2013-03-14 18:12:00,48.0,37.0,-100.00,SW,235,7.0,11.0,65,0.00,,,-99.99,,2013-03-14 18:12:00,
2013-03-14 18:22:00,48.0,35.0,-100.00,WSW,255,7.0,12.0,60,0.00,,,-99.99,,2013-03-14 18:22:00,
2013-03-14 18:32:00,49.0,35.0,-100.00,WSW,255,6.0,10.0,57,0.00,,,-99.99,,2013-03-14 18:32:00,
2013-03-14 18:42:00,49.0,35.0,-100.00,WSW,255,6.0,10.0,57,0.00,,,-99.99,,2013-03-14 18:42:00,
2013-03-14 18:52:00,49.0,34.0,-100.00,NW,305,11.0,14.0,56,0.00,,,-99.99,,2013-03-14 18:52:00,
2013-03-14 19:02:00,49.0,34.0,-100.00,NW,305,11.0,14.0,56,0.00,,,-99.99,,2013-03-14 19:02:00,
2013-03-14 19:12:00,49.0,33.0,-100.00,WNW,285,9.0,13.0,55,0.00,,,-99.99,,2013-03-14 19:12:00,
2013-03-14 19:22:00,49.0,36.0,-100.00,West,265,7.0,14.0,60,0.00,,,-99.99,,2013-03-14 19:22:00,
2013-03-14 19:32:00,51.0,36.0,-100.00,NW,315,6.0,12.0,57,0.00,,,-99.99,,2013-03-14 19:32:00,
2013-03-14 19:42:00,51.0,36.0,-100.00,NW,315,6.0,12.0,57,0.00,,,-99.99,,2013-03-14 19:42:00,
2013-03-14 19:52:00,50.0,37.0,-100.00,North,350,9.0,12.0,60,0.00,,,-99.99,,2013-03-14 19:52:00,
2013-03-14 20:02:00,50.0,37.0,-100.00,North,350,9.0,12.0,60,0.00,,,-99.99,,2013-03-14 20:02:00,
2013-03-14 20:11:00,50.0,36.0,-100.00,NW,305,7.0,14.0,57,0.00,,,-99.99,,2013-03-14 20:11:00,
2013-03-14 20:22:00,49.0,36.0,-100.00,NNW,335,8.0,12.0,59,0.00,,,-99.99,,2013-03-14 20:22:00,
2013-03-14 20:32:00,49.0,36.0,-100.00,NNW,335,8.0,12.0,60,0.00,,,-99.99,,2013-03-14 20:32:00,
2013-03-14 20:42:00,49.0,36.0,-100.00,NNW,335,8.0,12.0,60,0.00,,,-99.99,,2013-03-14 20:42:00,
2013-03-14 20:52:00,48.0,36.0,-100.00,NNW,340,9.0,13.0,62,0.00,,,-99.99,,2013-03-14 20:52:00,
2013-03-14 21:02:00,48.0,36.0,-100.00,NNW,340,9.0,13.0,62,0.00,,,-99.99,,2013-03-14 21:02:00,
2013-03-14 21:12:00,49.0,36.0,-100.00,North,0,9.0,14.0,62,0.00,,,-99.99,,2013-03-14 21:12:00,
2013-03-14 21:22:00,48.0,37.0,-100.00,North,10,9.0,14.0,65,0.00,,,-99.99,,2013-03-14 21:22:00,
2013-03-14 21:32:00,48.0,37.0,-100.00,North,0,9.0,11.0,66,0.00,,,-99.99,,2013-03-14 21:32:00,
2013-03-14 21:43:00,48.0,37.0,-100.00,North,0,9.0,11.0,66,0.00,,,-99.99,,2013-03-14 21:43:00,
2013-03-14 21:52:00,47.0,38.0,-100.00,North,10,9.0,12.0,70,0.00,,,-99.99,,2013-03-14 21:52:00,
2013-03-14 22:03:00,47.0,38.0,-100.00,North,10,9.0,12.0,70,0.00,,,-99.99,,2013-03-14 22:03:00,
2013-03-14 22:12:00,48.0,37.0,-100.00,North,0,6.0,11.0,67,0.00,,,-99.99,,2013-03-14 22:12:00,
2013-03-14 22:23:00,48.0,38.0,-100.00,North,350,6.0,10.0,68,0.00,,,-99.99,,2013-03-14 22:23:00,
2013-03-14 22:33:00,46.0,36.0,-100.00,North,355,6.0,10.0,69,0.00,,,-99.99,,2013-03-14 22:33:00,
2013-03-14 22:42:00,46.0,36.0,-100.00,North,355,6.0,10.0,69,0.00,,,-99.99,,2013-03-14 22:42:00,
2013-03-14 22:52:00,46.0,37.0,-100.00,North,350,6.0,8.0,71,0.00,,,-99.99,,2013-03-14 22:52:00,
2013-03-14 23:02:00,46.0,37.0,-100.00,North,350,6.0,8.0,71,0.00,,,-99.99,,2013-03-14 23:02:00,
2013-03-14 23:12:00,46.0,37.0,-100.00,North,0,4.0,7.0,71,0.00,,,-99.99,,2013-03-14 23:12:00,
2013-03-14 23:22:00,45.0,38.0,-100.00,North,10,6.0,7.0,74,0.00,,,-99.99,,2013-03-14 23:22:00,
2013-03-14 23:33:00,43.0,38.0,-100.00,North,10,7.0,9.0,82,0.00,,,-99.99,,2013-03-14 23:33:00,
2013-03-14 23:42:00,43.0,38.0,-100.00,North,10,7.0,9.0,82,0.00,,,-99.99,,2013-03-14 23:42:00,
2013-03-14 23:53:00,42.0,37.0,-100.00,North,0,9.0,10.0,82,0.00,,,-99.99,,2013-03-14 23:53:00,